Weather in Sloboda Podgornoe

Russia / Voronezh Oblast     50°25′57″N   39°38′04″E
temp.,
°C
wind,
m/s
gust,
m/s
humid.,
%
clouds,
%
prec.,
mm/h
press.,
hPa
HPBL,
m
19 june, sat
sat1900:00+17ene412890 0.0 1023287
03:00+15e412871 0.0 1024258
06:00+16e511825 0.0 1024315
09:00+21e69660 0.0 1024572
12:00+23e67580 0.0 1024982
15:00+24e67550 0.0 10231167
18:00+23e58650 0.0 1022628
21:00+18e49800 0.0 1023156
20 june, sun
sun2000:00+16ene310840 0.0 1023161
03:00+14ene39852 0.0 1023147
06:00+15ene411790 0.0 1022253
09:00+21e6962100 0.0 1022541
12:00+24e6853100 0.0 1022946
15:00+26e6857100 0.0 10201205
18:00+24e5106588 0.0 1019494
21:00+20ene41376100 0.0 1019260
21 june, mon
mon2100:00+19e5156911 0.0 1019296
03:00+18e4146398 0.0 1018280
06:00+18e410758 0.0 1019200
09:00+24ese510598 0.0 1019387
12:00+28ese7115176 0.0 1018944
15:00+28ese71053100 0.0 10181044
18:00+27e4106394 0.0 1018385
21:00+22e4137615 0.0 1018240
22 june, tue
tue2200:00+21e515675 0.0 1018318
03:00+19e414735 0.0 1019263
06:00+20e4127839 0.0 1019263
09:00+26ese6106391 0.0 1019446
12:00+29ese5751100 0.0 1018877
15:00+31e584813 0.0 10181833
18:00+29ene596122 0.0 1018357
21:00+24ene412758 0.0 1018213
23 june, wed
wed2300:00+22ene4136993 0.0 1018235
03:00+20ene4117111 0.0 1018216
06:00+21e3107113 0.0 1019205
09:00+26ese585789 0.0 1019281
12:00+31ese45435 0.0 1019734
15:00+32e56420 0.0 10191382
18:00+30e485832 0.0 1019294
21:00+24e4126841 0.0 1019209